COSMOS 1900 DEB, 43501

Orbit data source: Space-Track

COSMOS 1900 DEB, 43501 is space debris in LEO originally from a launch on Sat, 12 Dec 1987 UTC launched from the Tyuratam Missile And Space Complex (TTMTR). Debris objects in space refer to the collection of defunct objects orbiting the Earth. Examples of debris include non-operational satellites, rocket bodies, and fragments generated from explosions, collisions, or faulty payload assembly.

Loading next visibility...
Identifier
43501, 1987-101F
Orbit
LEO
Last TLE update
1 day ago
Origin
Manufacturer
Unknown
Mission
Spacecraft
Bus & Motor
Unknown
Mass
Unknown
Launch date (UTC)
1987-12-12 (38 years ago)
Launch vehicle
Unknown
Launch site
Tyuratam Missile And Space Complex (TTMTR)
Object type
Payload
Rocket body
Debris
Shape & HBR
Unknown
Radar Cross Section
Small (<0.1 m²)

Expand to show TLE details & history

TLE from 1 day ago
0 COSMOS 1900 DEB
1 43501U 87101F   25198.66366150  .00000220  00000-0  70192-4 0  9995
2 43501  66.0812 220.1417 0043381 293.1054  66.5483 14.58058570187492
Epoch: 2025-07-17T15:55Z
TLE epoch observation values (Epoch: 2025-07-17T15:55:40.353Z)
Latitude
-0.00008°
Longitude
45.49729°
Altitude
689.427 km
Speed
7.519 km/s
True Right ascension
14h 40m 33s
True Declination
0° 00' 00"
Sunlit
Object was in daylight at epoch
Visualization orbit readout
Latitude
39.87692°
Longitude
63.44561°
Altitude
715.687 km
Speed
7.496 km/s
Apparent Right ascension
19h 38m 52s
Apparent Declination
5° 24' 41"
Sunlit
Object is in daylight
Visualization observer readout
Local Sidereal Time
12:12:07
Azimuth
71.563° E
Elevation
-12.806°
Doppler factor
1
Orbital elements
Apogee altitude
728.574 km
Perigee altitude
667.181 km
Semi-major axis
7,076.014 km
Eccentricity
0.00434
Inclination
66.0812°
RAAN
220.1417°
Arg. of periapsis
293.1054°
True anomaly
67.00533°
Mean anomaly
66.5483°
Eccentric anomaly
66.77672°
Mean motion
3.64636 °/min
Orbital period
98.73 mins
BSTAR
0.000070192
Loading maneuver chart data...
Loading SW <> Apogee altitude chart data...
Loading historical data...
Loading historical data...
Loading historical data...
Loading historical data...
Loading historical data...
Loading historical data...
Loading historical data...
|